Location: Behlen Observatory
(41.1709°N, 96.4467°W)
Time: 05:32:50
(UTC-05:00)

OTV 5 (USA 277) - Visible Passes

Search period start: 24 June 2018 00:00
Search period end: 04 July 2018 00:00
Orbit: 313 x 320 km, 54.5° (Epoch: 21 June)

Date Brightness Start Highest point End Pass type
(mag) Time Alt. Az. Time Alt. Az. Time Alt. Az.
24 Jun ? 00:46:18 10° N 00:47:36 13° NNE 00:47:42 13° NNE visible
25 Jun ? 01:00:01 10° NNW 01:00:54 16° N 01:00:54 16° N visible
26 Jun ? 01:14:08 10° NW 01:14:14 11° NW 01:14:14 11° NW visible
26 Jun ? 23:54:52 10° NNW 23:56:43 16° NNE 23:56:47 16° NNE visible
28 Jun ? 00:08:49 10° NNW 00:10:14 23° N 00:10:14 23° N visible
28 Jun ? 22:49:52 10° N 22:51:07 12° NNE 22:52:22 10° NE visible
29 Jun ? 00:23:04 10° NW 00:23:45 16° NW 00:23:45 16° NW visible
29 Jun ? 23:03:34 10° NNW 23:05:48 22° NNE 23:06:27 20° NE visible
30 Jun ? 23:17:40 10° NW 23:20:03 50° N 23:20:03 50° N visible
01 Jul ? 21:58:26 10° NNW 22:00:15 16° NNE 22:02:03 10° ENE visible
01 Jul ? 23:32:07 10° WNW 23:33:42 28° W 23:33:42 28° W visible
02 Jul ? 22:12:22 10° NNW 22:14:51 32° NE 22:16:33 16° E visible
02 Jul ? 23:47:12 10° W 23:47:25 11° W 23:47:25 11° W visible
03 Jul ? 22:26:37 10° NW 22:29:19 86° SW 22:30:19 34° SE visible
